FLOCK 4V-25 (46812 NORAD) Tracking and Keplerian Element Data

This shows tracking and keplerian element data for the satellite.

Feedback or suggestion? Click here.




ElementValue
Catalog46812
NameFLOCK 4V-25
Epoch Orbit468
Epoch Day330.93626605
Epoch Year2020
RAAN42.5362
Inclination97.4557
Eccentricity0.0004123
Argument of Perigee287.7387
Mean Anonmoly72.3445
Mean Motion15.1579113
Decay Rate1.306E-05
L11 46812U 20061BP 20330.93626605 .00001306 00000-0 71841-4 0 9990
L22 46812 97.4557 42.5362 0004123 287.7387 72.3445 15.15791130 4680

Live tracking and technical data element details for FLOCK 4V-25 (NORAD 46812). FLOCK 4V-25 can be tracked NOW for your location showing map with azimuth and elevation plus other details from your city location.

Track the satellite on the map from your city or location and see movement details for azimuth, elevation, latitude, longitude, range, height, and movement on the map or in text.







IsCatalogInMostPopularTable: catalog: 46812, numindb: 17
Update: records affected: 1



GetName: 46812 FLOCK 4V-25

Hit Count: updated at: Thu, 26 Nov 2020 17:31:49 GMT